レモン彗星

P/2017 TW13 ( Lemmon )

English version
Home page
Updated on May 20, 2019

---------------------------------------------------------------------

・ プロフィール

発見日 2017年9月1日
発見光度 20.2等
発見者 J. A. Johnson (Mount Lemmon)

・ 写真集

・ 軌道要素

Epoch 2018 June 11.0 TT = JDT 2458280.5
T 2018 June 20.98563 TT                                 MPCW
q   2.0788046            (2000.0)            P               Q
n   0.05142549     Peri.  120.10966     -0.02146138     -0.90190037
a   7.1617155      Node   322.27628     +0.48416145     +0.36815966
e   0.7097337      Incl.   44.83657     +0.87471544     -0.22590746
P  19.17
From 200 observations 2017 Aug. 31-2019 Apr. 2, mean residual 0".5.

・ 光度変化

        m1 = 11.5 + 5 logΔ + 12.5 log r

---------------------------------------------------------------------

軌道要素はM.P.E.C. 2019-J142に掲載されたものです。
光度グラフはComet for Windowsで作成したものです。

---------------------------------------------------------------------

Copyright(C) Seiichi Yoshida (comet@aerith.net). All rights reserved.